Location: Frankfurt+(oder)
(51.7984°N, 12.2168°E)
Time: 06:50:59
(UTC+02:00)

ISS - Visible Passes

Search period start: 09 May 2021 00:00
Search period end: 19 May 2021 00:00
Orbit: 418 x 421 km, 51.6° (Epoch: 08 May)

Date Brightness Start Highest point End Pass type
(mag) Time Alt. Az. Time Alt. Az. Time Alt. Az.
09 May -2.7 02:03:26 35° ESE 02:03:26 35° ESE 02:05:43 10° E visible
09 May -3.8 03:36:23 15° W 03:39:09 89° WSW 03:42:34 10° E visible
10 May -1.4 01:17:27 16° E 01:17:27 16° E 01:18:15 10° E visible
10 May -3.9 02:50:22 34° W 02:51:43 85° S 02:55:07 10° E visible
10 May -3.8 04:25:09 10° W 04:28:32 73° SSW 04:31:55 10° ESE visible
11 May -3.9 02:04:21 76° SSE 02:04:21 76° SSE 02:07:41 10° E visible
11 May -3.8 03:37:43 10° W 03:41:07 83° S 03:44:30 10° E visible
12 May -2.5 01:18:16 31° E 01:18:16 31° E 01:20:14 10° E visible
12 May -3.8 02:51:12 17° W 02:53:40 89° S 02:57:04 10° E visible
12 May -3.4 04:27:08 10° W 04:30:23 46° SSW 04:33:38 10° SE visible
13 May -1.4 00:32:06 15° E 00:32:06 15° E 00:32:47 10° E visible
13 May -3.9 02:05:01 37° W 02:06:14 90° S 02:09:37 10° E visible
13 May -3.7 03:39:39 10° W 03:43:00 59° SSW 03:46:21 10° ESE visible
14 May -3.9 01:18:38 80° WSW 01:18:47 86° S 01:22:11 10° E visible
14 May -3.9 02:52:13 10° W 02:55:35 72° SSW 02:58:58 10° ESE visible
14 May -2.6 04:29:15 10° W 04:32:05 25° SSW 04:34:55 10° SSE visible
14 May -2.9 22:51:53 10° SSW 22:54:49 28° SSE 22:55:39 25° ESE visible
15 May -3.9 00:27:59 10° WSW 00:31:21 77° S 00:34:44 10° E visible
15 May -3.9 02:04:47 10° W 02:08:09 83° SSW 02:11:34 10° E visible
15 May -3.1 03:41:40 10° W 03:44:46 34° SSW 03:47:52 10° SE visible
15 May -2.4 22:04:58 10° SSW 22:07:31 20° SE 22:10:06 10° E visible
15 May -3.9 23:40:35 10° WSW 23:43:56 64° SSE 23:47:17 10° E visible
16 May -3.9 01:17:20 10° W 01:20:43 89° S 01:24:07 10° E visible
16 May -3.5 02:54:10 10° W 02:57:25 45° SSW 03:00:41 10° SE visible
16 May -1.8 04:32:07 10° WSW 04:33:37 12° SW 04:35:07 10° SSW visible
16 May -3.6 22:53:16 10° SW 22:56:32 50° SSE 22:59:49 10° E visible
17 May -3.9 00:29:53 10° W 00:33:16 90° SSE 00:36:40 10° E visible
17 May -3.8 02:06:42 10° W 02:10:02 59° SSW 02:13:23 10° ESE visible
17 May -2.3 03:44:01 10° W 03:46:23 18° SW 03:48:45 10° S visible
17 May -3.2 22:06:01 10° SW 22:09:10 38° SSE 22:12:21 10° E visible
17 May -3.9 23:42:26 10° W 23:45:49 86° S 23:49:12 10° E visible
18 May -3.9 01:19:15 10° W 01:22:38 72° SSW 01:22:56 65° SSE visible
18 May -3.9 22:55:01 10° WSW 22:58:23 77° S 23:01:46 10° E visible
